Location: Bottens
(46.6171°N, 6.6605°E)
Time: 13:33:42
(UTC+00:00)

ATLAS 5 CENTAUR R/B - Pass Details

Date: 28 October 2021
Orbit: 497 x 1159 km, 63.4° (Epoch: 25 November)

Event Time Altitude Azimuth Distance (km) Brightness Sun altitude
Rises 18:17:20 0° 290° (WNW) 2,751 6.2 -20.0°
Reaches altitude 10° 18:20:43 10° 321° (NW) 1,968 4.7 -20.6°
Maximum altitude 18:22:40 13° 347° (NNW) 1,873 4.2 -20.9°
Drops below altitude 10° 18:24:44 10° 13° (NNE) 2,125 4.2 -21.2°
Enters shadow 18:25:22 - 19° (NNE) 2,262 4.3 -21.4°
